Regional Weather Roundup
Issued by NWS Sioux Falls, SD

Home | Current Version | Previous Version | Graphics & Text | Print | Product List | Glossary Off
Versions: 1 2 3 4 5 6 7 8 9 10 11 12 13 14 15 16 17 18 19 20 21 22 23 24 25 26 27 28 29 30 31 32 33 34 35 36 37 38 39 40 41 42 43 44 45 46 47 48 49 50

631
ASUS43 KFSD 251702
RWRFSD

WEATHER ROUNDUP FOR SE SOUTH DAKOTA/SW MINNESOTA/NW IOWA
NATIONAL WEATHER SERVICE SIOUX FALLS SD
1200 PM CDT SUN SEP 25 2016

NOTE: "FAIR" INDICATES FEW OR NO CLOUDS BELOW 12,000 FEET WITH NO
SIGNIFICANT WEATHER AND OR OBSTRUCTIONS TO VISIBILITY.


SDZ038>040-050-052>070-251800-
SOUTHEAST SOUTH DAKOTA

CITY           SKY/WX    TMP DP  RH WIND       PRES   REMARKS
CHAMBERLAIN    MOSUNNY   65  43  45 NW30G37   30.15R
HURON          CLOUDY    61  46  57 NW29G36   30.06R
MADISON        CLOUDY    55  54  94 W22G36    30.05R
MITCHELL       CLOUDY    61  46  57 NW14G30   30.10R
SIOUX FALLS    CLOUDY    59  49  69 NW23G32   30.05R
WINNER         FAIR      65  36  34 NW30G39   30.20R
YANKTON        PTSUNNY  N/A N/A N/A NW28G40   30.08S
$$

MNZ071-072-080-081-089-090-097-098-251800-
SOUTHWEST MINNESOTA

CITY           SKY/WX    TMP DP  RH WIND       PRES   REMARKS
FAIRMONT       MOSUNNY   64  51  62 W20G25    29.99R
JACKSON        CLOUDY    63  48  59 W18G24    30.00S
LUVERNE        CLOUDY    57  46  67 W23       30.04R
MARSHALL       CLOUDY    61  51  70 W24G31    29.95R
MONTEVIDEO     CLOUDY    63  54  72 NW15G30   29.94R
PIPESTONE      CLOUDY    59  50  72 NW18G32   30.01R
REDWOOD FALLS  CLOUDY    62  51  67 W18       29.93R
TRACY          CLOUDY    62  53  71 W14G22    29.97R
WINDOM         CLOUDY    61  50  67 W17G25    29.98S
$$

IAZ001>003-012>014-020>022-031-032-NEZ013-014-SDZ071-251800-
NORTHWEST IOWA

CITY           SKY/WX    TMP DP  RH WIND       PRES   REMARKS
CHEROKEE       CLOUDY    62  49  63 W16G29    30.08R
DENISON        CLOUDY    64  50  59 W16G24    30.08S
ESTHERVILLE    CLOUDY    62  50  64 W21G29    30.02R
LE MARS        CLOUDY    61  48  63 NW23G29   30.09S
ORANGE CITY    CLOUDY    61  50  67 W24G32    30.07R
SHELDON        CLOUDY    61  50  67 W22       30.03S
SIOUX CITY     CLOUDY    65  49  56 NW22G30   30.09R
SPENCER        CLOUDY    63  49  60 W20G31    30.03R
STORM LAKE     MOSUNNY   63  48  59 W14G26    30.07S
$$

ABBREVIATIONS USED IN REMARKS
   TC - TEMPERATURE IN CELSIUS
  WCI - WIND CHILL INDEX
   HX - HEAT INDEX
  VSB - VISIBILITY





USA.gov is the U.S. government's official web portal to all federal, state and local government web resources and services.